Weather History for Scottsbluff, NE

Change the Weather History Date:

Sunday, January 19, 2014

  Actual Average Record
Temperature  
Mean Temperature 44 °F 28 °F  
Max Temperature 62 °F 41 °F 66 °F (1920)
Min Temperature 26 °F 14 °F -32 °F (1963)
Degree Days  
Heating Degree Days 21 37  
Month to date heating degree days 638 726  
Since 1 July heating degree days 3366 3498  
Cooling Degree Days 0 0  
Month to date cooling degree days 0 0  
Year to date cooling degree days 0 0  
Moisture  
Dew Point 16 °F    
Average Humidity 42    
Maximum Humidity 68    
Minimum Humidity 15    
Precipitation  
Precipitation 0.00 in 0.01 in 0.48 in (1990)
Month to date precipitation 0.30 0.25  
Year to date precipitation 0.30 0.25  
Snow  
Snow 0.00 in 0.10 in 6.20 in (1990)
Month to date snowfall 3.7 3.3  
Since 1 July snowfall 27.8 19.3  
Snow Depth 0.00 in    
Sea Level Pressure  
Sea Level Pressure 29.97 in    
Wind  
Wind Speed 12 mph (WNW)    
Max Wind Speed 28 mph    
Max Gust Speed 36 mph    
Visibility 10 miles    
Events      
T = Trace of Precipitation, MM = Missing Value Source: NWS Daily Summary

Daily Weather History Graph

Daily Weather History Graph

Search for Another Location

Airport:

Trip Planner

Search our weather history database for the weather conditions in past years. The results will help you decide how hot, cold, wet, or windy it might be!

Date:

Astronomy

Jan. 19, 2014 Rise Set
Actual Time 7:17 AM MST 4:53 PM MST
Civil Twilight 6:46 AM MST 5:23 PM MST
Nautical Twilight 6:12 AM MST 5:57 PM MST
Astronomical Twilight 5:39 AM MST 6:31 PM MST
Moon 8:37 PM MST (1/19) 8:44 AM MST (1/19)
Length of Visible Light 10h 36m
Length of Day
9h 35m
Waning Gibbous, 89% of the Moon is Illuminated
Jan 19
Waning Gibbous
Jan 23
Last Quarter
Jan 30
New
Feb 6
First Quarter
Feb 14
Full

Hourly Weather History & Observations

Time (MST) Temp. Windchill Dew Point Humidity Pressure Visibility Wind Dir Wind Speed Gust Speed Precip Events Conditions
12:53 AM 30.9 °F 23.5 °F 19.0 °F 61% 30.03 in 10.0 mi WNW 8.1 mph - N/A   Clear
1:53 AM 30.9 °F 24.3 °F 19.0 °F 61% 30.02 in 10.0 mi NNW 6.9 mph - N/A   Clear
2:53 AM 32.0 °F 24.2 °F 19.0 °F 59% 30.01 in 10.0 mi WNW 9.2 mph - N/A   Clear
3:53 AM 33.1 °F 26.9 °F 19.0 °F 56% 30.00 in 10.0 mi WNW 6.9 mph - N/A   Clear
4:53 AM 30.0 °F 22.4 °F 18.0 °F 61% 30.02 in 10.0 mi NNW 8.1 mph - N/A   Clear
5:53 AM 27.0 °F 20.5 °F 17.1 °F 66% 30.03 in 10.0 mi NNW 5.8 mph - N/A   Clear
6:53 AM 28.0 °F - 18.0 °F 66% 30.06 in 10.0 mi Calm Calm - N/A   Clear
7:53 AM 30.9 °F - 18.0 °F 59% 30.07 in 10.0 mi Calm Calm - N/A   Clear
8:53 AM 42.1 °F 37.1 °F 21.9 °F 45% 30.05 in 10.0 mi WNW 8.1 mph - N/A   Clear
9:53 AM 52.0 °F - 17.1 °F 25% 30.02 in 10.0 mi West 16.1 mph 25.3 mph N/A   Clear
10:53 AM 57.0 °F - 14.0 °F 18% 29.99 in 10.0 mi West 20.7 mph 31.1 mph N/A   Clear
11:53 AM 60.1 °F - 12.9 °F 16% 29.95 in 10.0 mi WNW 21.9 mph 28.8 mph N/A   Clear
12:53 PM 61.0 °F - 12.9 °F 15% 29.91 in 10.0 mi West 24.2 mph 34.5 mph N/A   Clear
1:53 PM 61.0 °F - 12.9 °F 15% 29.89 in 10.0 mi WNW 23.0 mph 32.2 mph N/A   Clear
2:53 PM 60.1 °F - 14.0 °F 16% 29.88 in 10.0 mi West 24.2 mph 33.4 mph N/A   Clear
3:53 PM 57.9 °F - 14.0 °F 18% 29.88 in 10.0 mi West 19.6 mph 29.9 mph N/A   Clear
4:53 PM 52.0 °F - 16.0 °F 24% 29.91 in 10.0 mi West 15.0 mph 23.0 mph N/A   Clear
5:53 PM 48.9 °F - 15.1 °F 26% 29.93 in 10.0 mi West 15.0 mph - N/A   Clear
6:53 PM 46.9 °F - 17.1 °F 30% 29.93 in 10.0 mi West 16.1 mph - N/A   Clear
7:53 PM 44.1 °F 38.6 °F 17.1 °F 34% 29.94 in 10.0 mi West 10.4 mph - N/A   Clear
8:53 PM 44.1 °F 39.0 °F 16.0 °F 32% 29.93 in 10.0 mi WNW 9.2 mph - N/A   Clear
9:53 PM 35.1 °F 28.6 °F 15.1 °F 44% 29.94 in 10.0 mi NW 8.1 mph - N/A   Clear
10:53 PM 37.9 °F 32.7 °F 15.1 °F 39% 29.94 in 10.0 mi West 6.9 mph - N/A   Clear
11:53 PM 36.0 °F 30.3 °F 16.0 °F 44% 29.94 in 10.0 mi WNW 6.9 mph - N/A   Clear